Location: City of Moscow
(46.7306°N, 116.9989°W)
Time: 04:09:11
(UTC+00:00)

LilacSat-2 - Visible Passes

Search period start: 21 April 2026 00:00
Search period end: 01 May 2026 00:00
Orbit: 412 x 424 km, 97.5° (Epoch: 20 April)

Date Brightness Start Highest point End Pass type
(mag) Time Alt. Az. Time Alt. Az. Time Alt. Az.
21 Apr ? 03:53:42 10° SW 03:55:55 17° W 03:58:10 10° NW visible
23 Apr ? 03:56:28 10° SW 03:58:35 16° W 04:00:42 10° NW visible
25 Apr ? 03:59:08 10° SW 04:01:08 15° W 04:03:08 10° NW visible
27 Apr ? 04:01:41 10° SW 04:03:33 15° W 04:05:26 10° WNW visible
29 Apr ? 04:04:07 10° SW 04:05:52 14° W 04:07:36 10° WNW visible
